Location: Newark
(44.3681°N, 100.3364°W)
Time: 15:22:24
(UTC+00:00)

deb Explorer IX - Pass Details

Date: 27 February 2020
Orbit: 547 x 1100 km, 38.8° (Epoch: 31 March)

Event Time Altitude Azimuth Distance (km) Brightness Sun altitude
Rises 19:11:20 0° 268° (W) 2,822 ? 37.2°
Reaches altitude 10° 19:14:02 10° 254° (WSW) 1,866 ? 37.1°
Maximum altitude 19:17:23 23° 201° (SSW) 1,190 ? 37.0°
Drops below altitude 10° 19:20:39 10° 147° (SSE) 1,806 ? 37.0°
Sets 19:23:12 0° 133° (SE) 2,707 ? 36.9°
